This is the latest recevied weather packets stored in our database for station/object F4FTJ-13. If no packets are shown the sender has not sent any weather packets the latest 10 day(s).
| Time | Temp. | Humidity | Pressure | Rain* | Wind** | Luminosity | Snow |
|---|---|---|---|---|---|---|---|
| 1778098838 | 9.44° C | 99% | 1012.9 hPa | 0 mm | - | - | - |
| 1778098238 | 10° C | 99% | 1012.7 hPa | 0 mm | - | - | - |
| 1778096437 | 11.11° C | 98% | 1012.4 hPa | 0 mm | - | - | - |
| 1778092237 | 13.33° C | 94% | 1011.8 hPa | 0 mm | - | - | - |
| 1778088037 | 14.44° C | 88% | 1011.2 hPa | 0 mm | - | - | - |
| 1778086537 | 13.89° C | 93% | 1011 hPa | 0 mm | - | - | - |
| 1778082337 | 13.33° C | 87% | 1011.2 hPa | 0 mm | - | - | - |
| 1778079637 | 14.44° C | 75% | 1011 hPa | 0 mm | - | - | - |
| 1778079037 | 15° C | 74% | 1011.2 hPa | 0 mm | - | - | - |
| 1778076038 | 15.56° C | 76% | 1011.1 hPa | 0 mm | - | - | - |
| 1778075437 | 15° C | 77% | 1011.2 hPa | 0 mm | - | - | - |
| 1778074837 | 14.44° C | 79% | 1011.2 hPa | 0 mm | - | - | - |
| 1778073338 | 13.89° C | 82% | 1011.3 hPa | 0 mm | - | - | - |
| 1778072737 | 14.44° C | 82% | 1011.3 hPa | 0 mm | - | - | - |
| 1778071238 | 13.89° C | 84% | 1011.1 hPa | 0 mm | - | - | - |
| 1778069437 | 13.89° C | 85% | 1011.1 hPa | 0 mm | - | - | - |
| 1778065538 | 12.22° C | 91% | 1011.1 hPa | 0 mm | - | - | - |
| 1778059537 | 10.56° C | 99% | 1010.3 hPa | 0 mm | - | - | - |
| 1778056237 | 10° C | 99% | 1010 hPa | 0.25 mm | - | - | - |
| 1778055937 | 10° C | 99% | 1010.2 hPa | 0.25 mm | - | - | - |
| 1778051438 | 10° C | 99% | 1009.3 hPa | 0.51 mm | - | - | - |
| 1778049637 | 10° C | 99% | 1009 hPa | 0.25 mm | - | - | - |
| 1778049337 | 10° C | 99% | 1009.1 hPa | 0.25 mm | - | - | - |
| 1778048437 | 10° C | 99% | 1008.9 hPa | 0 mm | - | - | - |
| 1778046937 | 10.56° C | 99% | 1008.6 hPa | 0 mm | - | - | - |
* Rain latest hour (hover to see other rain measurements)
** Current wind speed in m/s (hover to see current wind gust speed)